| time (UTC) | temp F | wind direction | speed knots | gust knots | rain 1hr in | rain 24hr in | rain mn in | humidity % | barometer mb |
| 20260502224104 | 56 | 342 | 2.6 | 7.8 | 0.00 | 0.10 | 0.10 | 41 | 1012.0 |
| 20260502223104 | 57 | 340 | 3.5 | 6.1 | 0.00 | 0.10 | 0.10 | 41 | 1011.9 |
| 20260502222104 | 57 | 355 | 2.6 | 5.2 | 0.00 | 0.10 | 0.10 | 41 | 1011.9 |
| 20260502221104 | 57 | 34 | 1.7 | 6.1 | 0.00 | 0.10 | 0.10 | 41 | 1011.8 |
| 20260502220605 | 57 | 19 | 4.3 | 10.4 | 0.00 | 0.10 | 0.10 | 38 | 1011.6 |
| 20260502220104 | 57 | 358 | 4.3 | 8.7 | 0.00 | 0.10 | 0.10 | 39 | 1011.6 |
| 20260502214604 | 58 | 349 | 2.6 | 7.8 | 0.00 | 0.10 | 0.10 | 39 | 1011.5 |
| 20260502213104 | 59 | 21 | 4.3 | 8.7 | 0.00 | 0.10 | 0.10 | 39 | 1011.5 |
| 20260502212604 | 59 | 309 | 5.2 | 8.7 | 0.00 | 0.10 | 0.10 | 37 | 1011.4 |
| 20260502212104 | 59 | 343 | 4.3 | 10.4 | 0.00 | 0.10 | 0.10 | 39 | 1011.4 |
| 20260502211104 | 58 | 35 | 0.0 | 1.7 | 0.00 | 0.10 | 0.10 | 50 | 1011.3 |
| 20260502210105 | 60 | 57 | 0.0 | 2.6 | 0.00 | 0.10 | 0.10 | 49 | 1011.2 |
| 20260502205106 | 60 | 121 | 0.9 | 4.3 | 0.00 | 0.10 | 0.10 | 55 | 1011.1 |
| 20260502204605 | 58 | 128 | 1.7 | 6.1 | 0.00 | 0.10 | 0.10 | 54 | 1011.1 |
| 20260502204104 | 58 | 132 | 1.7 | 4.3 | 0.00 | 0.10 | 0.10 | 54 | 1011.1 |
| 20260502203104 | 58 | 163 | 3.5 | 7.0 | 0.00 | 0.10 | 0.10 | 51 | 1011.2 |
| 20260502202605 | 58 | 126 | 2.6 | 5.2 | 0.00 | 0.10 | 0.10 | 54 | 1011.4 |
| 20260502202105 | 58 | 131 | 1.7 | 2.6 | 0.00 | 0.10 | 0.10 | 55 | 1011.4 |
| 20260502201604 | 58 | 114 | 1.7 | 4.3 | 0.00 | 0.10 | 0.10 | 56 | 1011.5 |
| 20260502201105 | 57 | 128 | 2.6 | 4.3 | 0.00 | 0.10 | 0.10 | 55 | 1011.5 |
| 20260502200605 | 57 | 124 | 1.7 | 4.3 | 0.00 | 0.10 | 0.10 | 55 | 1011.6 |
| 20260502200106 | 57 | 124 | 2.6 | 4.3 | 0.00 | 0.10 | 0.10 | 55 | 1011.7 |
| 20260502195604 | 57 | 139 | 1.7 | 7.8 | 0.00 | 0.10 | 0.10 | 55 | 1011.7 |
| 20260502195104 | 57 | 37 | 1.7 | 6.1 | 0.00 | 0.10 | 0.10 | 56 | 1011.7 |
| 20260502194604 | 58 | 120 | 2.6 | 10.4 | 0.00 | 0.10 | 0.10 | 55 | 1011.8 |
| 20260502194104 | 58 | 209 | 0.9 | 2.6 | 0.00 | 0.10 | 0.10 | 55 | 1011.7 |
| 20260502193104 | 58 | 191 | 1.7 | 2.6 | 0.00 | 0.10 | 0.10 | 56 | 1011.9 |
| 20260502192604 | 57 | 177 | 0.0 | 2.6 | 0.00 | 0.10 | 0.10 | 62 | 1012.0 |
| 20260502192105 | 57 | 190 | 1.7 | 5.2 | 0.00 | 0.10 | 0.10 | 63 | 1012.1 |
| 20260502191604 | 57 | 185 | 0.9 | 2.6 | 0.00 | 0.10 | 0.10 | 64 | 1012.2 |
| 20260502191105 | 57 | 185 | 2.6 | 6.1 | 0.00 | 0.10 | 0.10 | 61 | 1012.2 |
| 20260502190605 | 56 | 160 | 0.9 | 2.6 | 0.00 | 0.10 | 0.10 | 64 | 1012.2 |
| 20260502190104 | 56 | 155 | 1.7 | 5.2 | 0.00 | 0.10 | 0.10 | 66 | 1012.3 |
| 20260502185604 | 56 | 111 | 2.6 | 5.2 | 0.00 | 0.10 | 0.10 | 64 | 1012.4 |
| 20260502185104 | 56 | 138 | 1.7 | 5.2 | 0.00 | 0.10 | 0.10 | 65 | 1012.4 |
| 20260502184605 | 56 | 139 | 1.7 | 2.6 | 0.00 | 0.10 | 0.10 | 67 | 1012.5 |
| 20260502184105 | 56 | 159 | 1.7 | 4.3 | 0.00 | 0.10 | 0.10 | 66 | 1012.5 |
| 20260502183604 | 57 | 128 | 4.3 | 8.7 | 0.00 | 0.10 | 0.10 | 67 | 1012.6 |
| 20260502183104 | 58 | 183 | 2.6 | 8.7 | 0.00 | 0.10 | 0.10 | 66 | 1012.5 |
| 20260502182104 | 57 | 192 | 0.9 | 4.3 | 0.00 | 0.10 | 0.10 | 70 | 1012.6 |
| 20260502181604 | 56 | 103 | 1.7 | 5.2 | 0.00 | 0.10 | 0.10 | 71 | 1012.7 |
| 20260502181104 | 56 | 131 | 3.5 | 10.4 | 0.00 | 0.10 | 0.10 | 70 | 1012.6 |
| 20260502180604 | 56 | 89 | 5.2 | 10.4 | 0.00 | 0.10 | 0.10 | 69 | 1012.6 |
| 20260502180104 | 56 | 85 | 2.6 | 8.7 | 0.00 | 0.10 | 0.10 | 70 | 1012.5 |
| 20260502170104 | 54 | 135 | 3.5 | 7.0 | 0.00 | 0.10 | 0.10 | 75 | 1013.2 |
| 20260502164104 | 54 | 99 | 3.5 | 8.7 | 0.00 | 0.10 | 0.10 | 78 | 1013.4 |
| 20260502163105 | 51 | 142 | 1.7 | 7.0 | 0.00 | 0.10 | 0.10 | 79 | 1013.6 |
| 20260502162605 | 51 | 186 | 3.5 | 7.8 | 0.00 | 0.10 | 0.10 | 79 | 1013.6 |
| 20260502162105 | 51 | 142 | 4.3 | 7.0 | 0.00 | 0.10 | 0.10 | 79 | 1013.7 |
| 20260502161604 | 51 | 100 | 2.6 | 7.8 | 0.00 | 0.10 | 0.10 | 79 | 1013.6 |
| 20260502150604 | 52 | 20 | 2.6 | 5.2 | 0.00 | 0.10 | 0.10 | 77 | 1013.8 |
| 20260502150104 | 52 | 28 | 0.9 | 2.6 | 0.00 | 0.10 | 0.10 | 78 | 1013.8 |
| 20260502140104 | 49 | 312 | 2.6 | 7.8 | 0.00 | 0.10 | 0.10 | 82 | 1013.8 |
| 20260502130104 | 50 | 317 | 3.5 | 7.8 | 0.00 | 0.10 | 0.10 | 90 | 1013.8 |
| 20260502123104 | 49 | 310 | 1.7 | 5.2 | 0.00 | 0.10 | 0.10 | 93 | 1013.6 |
| 20260502122603 | 49 | 302 | 2.6 | 7.0 | 0.00 | 0.10 | 0.10 | 93 | 1013.6 |
| 20260502122104 | 49 | 283 | 1.7 | 5.2 | 0.00 | 0.10 | 0.10 | 93 | 1013.6 |
| 20260502121604 | 49 | 303 | 2.6 | 5.2 | 0.00 | 0.10 | 0.10 | 93 | 1013.5 |
| 20260502121106 | 49 | 307 | 2.6 | 4.3 | 0.00 | 0.10 | 0.10 | 93 | 1013.6 |
| 20260502120604 | 49 | 327 | 0.0 | 2.6 | 0.00 | 0.10 | 0.10 | 94 | 1013.5 |
| 20260502115604 | 49 | 344 | 0.0 | 2.6 | 0.00 | 0.10 | 0.10 | 94 | 1013.7 |
| 20260502115104 | 49 | 290 | 0.9 | 5.2 | 0.00 | 0.10 | 0.10 | 94 | 1013.7 |
| 20260502114605 | 49 | 316 | 2.6 | 6.1 | 0.00 | 0.10 | 0.10 | 94 | 1013.6 |
| 20260502113604 | 49 | 314 | 0.9 | 5.2 | 0.00 | 0.10 | 0.10 | 94 | 1013.6 |
| 20260502113104 | 49 | 304 | 1.7 | 2.6 | 0.00 | 0.10 | 0.10 | 94 | 1013.6 |
| 20260502112605 | 49 | 346 | 0.9 | 2.6 | 0.00 | 0.10 | 0.10 | 94 | 1013.5 |
| 20260502111604 | 48 | 354 | 0.0 | 1.7 | 0.00 | 0.10 | 0.10 | 94 | 1013.4 |
| 20260502111105 | 48 | 354 | 0.9 | 2.6 | 0.00 | 0.10 | 0.10 | 94 | 1013.5 |
| 20260502110605 | 48 | 355 | 0.0 | 1.7 | 0.00 | 0.10 | 0.10 | 94 | 1013.3 |
| 20260502105104 | 47 | 355 | 0.0 | 0.0 | 0.00 | 0.10 | 0.10 | 94 | 1013.2 |
| 20260502104604 | 47 | 355 | 0.0 | 0.0 | 0.00 | 0.10 | 0.10 | 93 | 1013.1 |
| 20260502104103 | 47 | 355 | 0.0 | 0.0 | 0.00 | 0.10 | 0.10 | 93 | 1013.1 |
| 20260502103604 | 47 | 355 | 0.0 | 0.0 | 0.00 | 0.10 | 0.10 | 93 | 1013.0 |
| 20260502103104 | 47 | 355 | 0.0 | 0.0 | 0.01 | 0.10 | 0.10 | 93 | 1012.8 |
| 20260502102104 | 48 | 355 | 0.0 | 0.0 | 0.01 | 0.10 | 0.10 | 93 | 1012.9 |
| 20260502101604 | 48 | 355 | 0.0 | 0.0 | 0.01 | 0.10 | 0.10 | 93 | 1012.9 |
| 20260502101103 | 48 | 355 | 0.0 | 0.0 | 0.02 | 0.10 | 0.10 | 93 | 1012.8 |
| 20260502100604 | 48 | 355 | 0.0 | 0.0 | 0.02 | 0.10 | 0.10 | 93 | 1012.8 |
| 20260502100105 | 48 | 355 | 0.0 | 0.0 | 0.02 | 0.10 | 0.10 | 93 | 1012.9 |
| 20260502091105 | 48 | 355 | 0.0 | 0.0 | 0.06 | 0.08 | 0.08 | 93 | 1012.6 |
| 20260502090604 | 48 | 355 | 0.0 | 0.0 | 0.06 | 0.08 | 0.08 | 92 | 1012.7 |
| 20260502090104 | 48 | 355 | 0.0 | 0.0 | 0.06 | 0.08 | 0.08 | 92 | 1012.8 |
| 20260502080104 | 49 | 356 | 0.0 | 0.0 | 0.00 | 0.02 | 0.02 | 91 | 1012.6 |
| 20260502071103 | 49 | 356 | 0.0 | 0.0 | 0.00 | 0.02 | 0.02 | 90 | 1013.3 |
| 20260502070604 | 49 | 356 | 0.0 | 0.0 | 0.01 | 0.02 | 0.02 | 90 | 1013.4 |
| 20260502070104 | 49 | 356 | 0.0 | 0.0 | 0.01 | 0.02 | 0.02 | 90 | 1013.4 |
| 20260502065604 | 49 | 356 | 0.0 | 0.0 | 0.02 | 0.02 | 0.02 | 90 | 1013.4 |
| 20260502064605 | 49 | 356 | 0.0 | 0.0 | 0.02 | 0.02 | 0.02 | 89 | 1013.4 |
| 20260502064104 | 49 | 356 | 0.0 | 0.9 | 0.02 | 0.02 | 0.02 | 89 | 1013.5 |
| 20260502063604 | 49 | 348 | 1.7 | 2.6 | 0.02 | 0.02 | 0.02 | 89 | 1013.6 |
| 20260502063105 | 49 | 316 | 0.9 | 2.6 | 0.02 | 0.02 | 0.02 | 89 | 1013.6 |
| 20260502062603 | 49 | 316 | 0.0 | 1.7 | 0.02 | 0.02 | 0.02 | 89 | 1013.4 |
| 20260502061603 | 49 | 316 | 0.0 | 1.7 | 0.02 | 0.02 | 0.02 | 88 | 1013.4 |
| 20260502061104 | 50 | 316 | 0.9 | 1.7 | 0.02 | 0.02 | 0.02 | 88 | 1013.6 |
| 20260502055605 | 50 | 317 | 0.0 | 0.0 | 0.00 | 0.00 | 0.00 | 88 | 1013.5 |
| 20260502055104 | 50 | 317 | 0.0 | 0.0 | 0.00 | 0.00 | 0.00 | 87 | 1013.3 |
| 20260502054604 | 50 | 317 | 0.0 | 0.0 | 0.00 | 0.00 | 0.00 | 86 | 1013.2 |
| 20260502053604 | 50 | 317 | 0.0 | 0.0 | 0.00 | 0.00 | 0.00 | 85 | 1013.2 |
| 20260502052604 | 51 | 317 | 0.0 | 1.7 | 0.00 | 0.00 | 0.00 | 85 | 1013.3 |
| 20260502052104 | 51 | 317 | 0.0 | 0.9 | 0.00 | 0.00 | 0.00 | 84 | 1013.3 |
| 20260502051604 | 51 | 317 | 0.9 | 1.7 | 0.00 | 0.00 | 0.00 | 84 | 1013.6 |
| 20260502050605 | 51 | 295 | 0.0 | 1.7 | 0.00 | 0.00 | 0.00 | 84 | 1013.5 |
| 20260502045604 | 51 | 295 | 0.0 | 0.0 | 0.00 | 0.00 | 0.00 | 83 | 1013.1 |
| 20260502045104 | 51 | 295 | 0.0 | 0.0 | 0.00 | 0.00 | 0.00 | 83 | 1013.0 |
| 20260502044605 | 51 | 295 | 0.0 | 0.0 | 0.00 | 0.00 | 0.00 | 82 | 1013.0 |
| 20260502044104 | 51 | 295 | 0.0 | 0.0 | 0.00 | 0.00 | 0.00 | 82 | 1013.0 |
| 20260502043103 | 51 | 295 | 0.0 | 0.0 | 0.00 | 0.00 | 0.00 | 81 | 1012.9 |
| 20260502042604 | 51 | 295 | 0.0 | 0.0 | 0.00 | 0.00 | 0.00 | 81 | 1013.1 |
| 20260502042104 | 51 | 295 | 0.0 | 0.0 | 0.00 | 0.00 | 0.00 | 81 | 1013.3 |
| 20260502041604 | 51 | 295 | 0.0 | 0.0 | 0.00 | 0.00 | 0.00 | 80 | 1013.2 |
| 20260502041104 | 51 | 295 | 0.0 | 0.0 | 0.00 | 0.00 | 0.00 | 80 | 1013.1 |
| 20260502040105 | 51 | 295 | 0.0 | 0.0 | 0.00 | 0.00 | 0.00 | 80 | 1013.1 |
| 20260502035104 | 51 | 295 | 0.0 | 0.0 | 0.00 | 0.00 | 0.00 | 80 | 1013.1 |
| 20260502034604 | 51 | 295 | 0.0 | 0.0 | 0.00 | 0.00 | 0.00 | 80 | 1012.9 |
| 20260502034103 | 51 | 295 | 0.0 | 0.0 | 0.00 | 0.00 | 0.00 | 79 | 1012.9 |
| 20260502033604 | 51 | 295 | 0.0 | 0.0 | 0.00 | 0.00 | 0.00 | 79 | 1013.1 |
| 20260502033105 | 51 | 295 | 0.0 | 0.0 | 0.00 | 0.00 | 0.00 | 79 | 1013.0 |
| 20260502032104 | 51 | 295 | 0.0 | 0.0 | 0.00 | 0.00 | 0.00 | 78 | 1013.1 |
| 20260502031604 | 51 | 295 | 0.0 | 0.0 | 0.00 | 0.00 | 0.00 | 78 | 1013.1 |
| 20260502031104 | 51 | 295 | 0.0 | 0.0 | 0.00 | 0.00 | 0.00 | 78 | 1013.0 |
| 20260502030604 | 51 | 295 | 0.0 | 0.0 | 0.00 | 0.00 | 0.00 | 78 | 1013.2 |
| 20260502030105 | 51 | 295 | 0.0 | 0.0 | 0.00 | 0.00 | 0.00 | 78 | 1013.3 |
| 20260502025604 | 51 | 295 | 0.0 | 0.0 | 0.00 | 0.00 | 0.00 | 78 | 1013.3 |
| 20260502025104 | 51 | 295 | 0.0 | 0.0 | 0.00 | 0.00 | 0.00 | 78 | 1013.3 |
| 20260502024603 | 51 | 295 | 0.0 | 0.0 | 0.00 | 0.00 | 0.00 | 77 | 1013.3 |
| 20260502024104 | 51 | 295 | 0.0 | 0.9 | 0.00 | 0.00 | 0.00 | 77 | 1013.3 |
| 20260502023604 | 51 | 295 | 0.0 | 1.7 | 0.00 | 0.00 | 0.00 | 76 | 1013.2 |
| 20260502023104 | 51 | 295 | 0.0 | 0.0 | 0.00 | 0.00 | 0.00 | 76 | 1013.2 |
| 20260502021604 | 51 | 295 | 0.0 | 0.0 | 0.00 | 0.00 | 0.00 | 74 | 1013.1 |
| 20260502021103 | 51 | 295 | 0.0 | 0.0 | 0.00 | 0.00 | 0.00 | 74 | 1013.0 |
| 20260502020603 | 51 | 295 | 0.0 | 0.0 | 0.00 | 0.00 | 0.00 | 74 | 1013.2 |
| 20260502020105 | 51 | 295 | 0.0 | 0.0 | 0.00 | 0.00 | 0.00 | 73 | 1013.1 |
| 20260502015604 | 51 | 295 | 0.0 | 0.0 | 0.00 | 0.00 | 0.00 | 72 | 1013.0 |
| 20260502015103 | 52 | 295 | 0.0 | 0.0 | 0.00 | 0.00 | 0.00 | 71 | 1012.8 |
| 20260502014603 | 52 | 295 | 0.0 | 0.0 | 0.00 | 0.00 | 0.00 | 71 | 1012.8 |
| 20260502014105 | 52 | 295 | 0.0 | 0.0 | 0.00 | 0.00 | 0.00 | 70 | 1012.8 |
| 20260502013603 | 52 | 295 | 0.0 | 0.0 | 0.00 | 0.00 | 0.00 | 69 | 1012.7 |
| 20260502012604 | 53 | 295 | 0.0 | 0.0 | 0.00 | 0.00 | 0.00 | 68 | 1012.8 |
| 20260502012104 | 53 | 295 | 0.0 | 0.0 | 0.00 | 0.00 | 0.00 | 67 | 1012.8 |
| 20260502011104 | 54 | 295 | 0.0 | 0.0 | 0.00 | 0.00 | 0.00 | 65 | 1012.8 |
| 20260502010604 | 54 | 295 | 0.0 | 0.9 | 0.00 | 0.00 | 0.00 | 63 | 1012.8 |
| 20260502010103 | 55 | 295 | 0.0 | 0.0 | 0.00 | 0.00 | 0.00 | 62 | 1012.8 |
| 20260502005604 | 55 | 295 | 0.0 | 0.0 | 0.00 | 0.00 | 0.00 | 62 | 1012.8 |
| 20260502005104 | 55 | 295 | 0.0 | 1.7 | 0.00 | 0.00 | 0.00 | 62 | 1012.9 |
| 20260502004105 | 56 | 295 | 0.0 | 0.9 | 0.00 | 0.00 | 0.00 | 61 | 1012.7 |
| 20260502003605 | 56 | 295 | 0.0 | 0.0 | 0.00 | 0.00 | 0.00 | 59 | 1012.6 |
| 20260502003104 | 57 | 295 | 0.0 | 0.0 | 0.00 | 0.00 | 0.00 | 57 | 1012.5 |
| 20260502002605 | 57 | 295 | 0.0 | 1.7 | 0.00 | 0.00 | 0.00 | 57 | 1012.4 |
| 20260502002105 | 57 | 295 | 0.0 | 1.7 | 0.00 | 0.00 | 0.00 | 56 | 1012.3 |
| 20260502001105 | 57 | 295 | 0.9 | 4.3 | 0.00 | 0.00 | 0.00 | 56 | 1012.3 |
| 20260502000604 | 58 | 286 | 0.9 | 2.6 | 0.00 | 0.00 | 0.00 | 57 | 1012.3 |
| 20260502000104 | 58 | 283 | 0.9 | 5.2 | 0.00 | 0.00 | 0.00 | 57 | 1012.3 |
| 20260501235603 | 58 | 232 | 0.9 | 1.7 | 0.00 | 0.00 | 0.00 | 55 | 1012.4 |
| 20260501234604 | 59 | 238 | 0.9 | 4.3 | 0.00 | 0.00 | 0.00 | 53 | 1012.3 |
| 20260501233604 | 59 | 276 | 4.3 | 11.3 | 0.00 | 0.00 | 0.00 | 50 | 1012.2 |
| 20260501233104 | 60 | 290 | 0.9 | 2.6 | 0.00 | 0.00 | 0.00 | 51 | 1012.2 |
| 20260501232605 | 60 | 295 | 1.7 | 7.0 | 0.00 | 0.00 | 0.00 | 49 | 1012.0 |
| 20260501232104 | 60 | 286 | 2.6 | 6.1 | 0.00 | 0.00 | 0.00 | 48 | 1012.0 |
| 20260501231605 | 60 | 299 | 2.6 | 7.0 | 0.00 | 0.00 | 0.00 | 49 | 1011.9 |
| 20260501231104 | 60 | 294 | 5.2 | 12.2 | 0.00 | 0.00 | 0.00 | 47 | 1011.8 |
| 20260501230604 | 60 | 301 | 1.7 | 7.8 | 0.00 | 0.00 | 0.00 | 46 | 1011.8 |
| 20260501225605 | 61 | 289 | 5.2 | 11.3 | 0.00 | 0.00 | 0.00 | 46 | 1011.6 |
| 20260501225103 | 61 | 258 | 2.6 | 7.0 | 0.00 | 0.00 | 0.00 | 45 | 1011.5 |
| 20260501224604 | 62 | 341 | 6.1 | 10.4 | 0.00 | 0.00 | 0.00 | 44 | 1011.5 |